Location: Dodgeville, WI 53533, USA
(43.0344°N, 90.0900°W)
Time: 23:57:17
(UTC-06:00)

ISS - Pass Details

Date: 01 February 2021
Orbit: 417 x 422 km, 51.6° (Epoch: 05 March)

Event Time Altitude Azimuth Distance (km) Brightness Sun altitude
Rises 18:04:14 0° 305° (NW) 2,374 0.7 -9.6°
Reaches altitude 10° 18:06:31 10° 317° (NW) 1,508 -0.5 -10.0°
Maximum altitude 18:09:31 28° 19° (NNE) 816 -2.6 -10.6°
Enters shadow 18:11:27 17° 69° (ENE) 1,155 -2.2 -10.9°
